{"data":{"norad_id":49771,"epoch":"2026-09-19T22:01:17.980608Z","epoch_age_seconds":95569,"freshness":"FRESH","line1":"1 49771U 21115AZ  26262.91756922  .00009513  00000+0  29285-3 0  9993","line2":"2 49771  53.1615 332.1618 0000921  88.0100 272.1008 15.34341109265200","mean_motion":15.34341109,"eccentricity":9.21e-5,"inclination_deg":53.1615,"raan_deg":332.1618,"arg_perigee_deg":88.01,"mean_anomaly_deg":272.1008,"bstar":0.00029285,"rev_number":26520,"period_min":93.851360141065,"perigee_km":462.24822476083,"apogee_km":463.50833977583,"semimajor_km":6841.0152822683,"source":"CELESTRAK","updated_at":"2026-09-20T09:00:39.412972Z"}}